User: anonymous   Login
Location: Unspecified
(0.0000°N, 0.0000°E)
Time: 22:39:01
(UTC+02:00)
Language:

Envisat - Orbit

View from above orbital plane
View from above orbital plane
View from above satellite
View from above satellite

Ground track
Ground track

The orbit data is extracted from the following two-line orbital elements,

1 27386U 02009A   18203.53724787 -.00000023  00000-0  60484-5 0  9997
2 27386  98.1819 235.9278 0001391  95.8845  74.8901 14.37926102858604
Epoch (UTC): 22 July 2018 12:53:38
Eccentricity: 0.0001391
inclination: 98.1819°
perigee height: 764 km
apogee height: 766 km
right ascension of ascending node: 235.9278°
argument of perigee: 95.8845°
revolutions per day: 14.37926102
mean anomaly at epoch: 74.8901°
orbit number at epoch: 85860

The dashed part of the orbit path shows where the satellite is in the earth's shadow,  

DLR